Location: Unspecified
(0.0000°N, 0.0000°E)
Time: 14:33:06
(UTC+00:00)

THORAD DELTA 1 DEB - Pass Details

Date: 20 February 2026
Orbit: 1451 x 1739 km, 101.5° (Epoch: 4 March)

Event Time Altitude Azimuth Distance (km) Brightness Sun altitude
Rises 18:41:24 0° 119° (ESE) 4,632 ? -6.8°
Reaches altitude 10° 18:47:52 10° 83° (E) 3,595 ? -8.4°
Maximum altitude 18:49:14 10° 73° (ENE) 3,549 ? -8.7°
Drops below altitude 10° 18:50:36 10° 63° (ENE) 3,578 ? -9.1°
Sets 18:56:53 0° 27° (NNE) 4,537 ? -10.6°
